TITAN 3C TRANSTAGE DEB, 26778

Orbit data source: Space-Track

TITAN 3C TRANSTAGE DEB, 26778 is space debris in HEO originally from a launch on Tue, 21 Dec 1965 UTC launched from the Air Force Eastern Test Range (AFETR). Debris objects in space refer to the collection of defunct objects orbiting the Earth. Examples of debris include non-operational satellites, rocket bodies, and fragments generated from explosions, collisions, or faulty payload assembly.

Loading next visibility...
Identifier
26778, 1965-108AW
Orbit
HEO
Country
Flag of USUS
Related business
Manufacturer
Unknown
Mission
Spacecraft
Bus & Motor
Unknown
Mass
Unknown
Launch date (UTC)
1965-12-21 (61 years ago)
Launch vehicle
Unknown
Launch site
Air Force Eastern Test Range (AFETR)
Object type
Payload
Rocket body
Debris
Shape & HBR
Unknown shape, 0.2 m
Radar Cross Section
Medium (>0.1 m² and <1 m²)

Expand to show TLE details & history
Last TLE update: 1 week ago

TLE from 1 week ago
0 TITAN 3C TRANSTAGE DEB
1 26778U 65108AW  26166.60799435 -.00000342  00000-0 -49977-2 0  9993
2 26778  27.8918  74.7622 6771201 234.2575 336.9666  2.65406747112810
Epoch: 2026-06-15T14:35Z
TLE epoch observation values (Epoch: 2026-06-15T14:35:30.711Z)
Latitude
19.32379°
Longitude
90.69736°
Altitude
6,968.088 km
Speed
6.454 km/s
True Right ascension
14h 13m 52s
True Declination
19° 15' 59"
Sunlit
Object was in daylight at epoch
Visualization orbit readout
Latitude
Unknown
Longitude
Unknown
Altitude
Unknown
Speed
Unknown
Apparent Right ascension
Unknown
Apparent Declination
Unknown
Sunlit
N/A
Visualization observer readout
Local Sidereal Time
17:56:07
Azimuth
Unknown
Elevation
Unknown
Doppler factor
Unknown
Orbital elements
Apogee altitude
30,584.082 km
Perigee altitude
737.846 km
Semi-major axis
22,039.101 km
Eccentricity
0.67712
Inclination
27.8918°
RAAN
74.7622°
Arg. of periapsis
234.2575°
True anomaly
260.62222°
Mean anomaly
336.9666°
Eccentric anomaly
305.30596°
Mean motion
0.66336 °/min
Orbital period
542.69 mins
BSTAR
-0.0049977

Documentation

Showing up to 5 results
|